Location: *
(45.5667°S, 177.5167°W)
Time: 22:27:28
(UTC+00:00)

NOAA 12 - Pass Details

Date: 29 May 2022
Orbit: 796 x 814 km, 98.5° (Epoch: 24 June)

Event Time Altitude Azimuth Distance (km) Brightness Sun altitude
Rises 06:03:13 0° 169° (S) 3,370 7.1 -17.9°
Reaches altitude 10° 06:05:36 10° 171° (S) 2,429 6.4 -18.3°
Maximum altitude 06:10:57 69° 252° (WSW) 873 4.4 -19.2°
Drops below altitude 10° 06:16:12 10° 335° (NNW) 2,386 7.0 -20.2°
Sets 06:18:31 0° 337° (NNW) 3,307 7.8 -20.5°
